| time (UTC) | temp F | wind direction | speed MPH | gust MPH | rain 1hr in | rain 24hr in | rain mn in | humidity % | barometer mb |
| 20260507140016 | 75 | 190 | 1.0 | 2.0 | 0.00 | 0.00 | 0.00 | 59 | 1011.3 |
| 20260507135037 | 75 | 194 | 1.0 | 2.0 | 0.00 | 0.00 | 0.00 | 55 | 1011.2 |
| 20260507134016 | 75 | 240 | 1.0 | 2.0 | 0.00 | 0.00 | 0.00 | 52 | 1010.8 |
| 20260507133036 | 75 | 0.0 | 0.0 | 0.00 | 0.00 | 0.00 | 53 | 1010.6 | |
| 20260507132016 | 75 | 314 | 0.0 | 2.0 | 0.00 | 0.00 | 0.00 | 54 | 1010.6 |
| 20260507131017 | 75 | 5 | 0.0 | 2.0 | 0.00 | 0.00 | 0.00 | 53 | 1010.7 |
| 20260507130016 | 75 | 278 | 0.0 | 2.0 | 0.00 | 0.00 | 0.00 | 53 | 1010.4 |
| 20260507125016 | 74 | 193 | 0.0 | 3.0 | 0.00 | 0.00 | 0.00 | 52 | 1010.1 |
| 20260507124017 | 74 | 300 | 0.0 | 2.0 | 0.00 | 0.00 | 0.00 | 52 | 1009.9 |
| 20260507123016 | 75 | 346 | 1.0 | 3.0 | 0.00 | 0.00 | 0.00 | 51 | 1010.0 |
| 20260507122036 | 75 | 330 | 1.0 | 2.0 | 0.00 | 0.00 | 0.00 | 51 | 1010.1 |
| 20260507121016 | 75 | 330 | 1.0 | 2.0 | 0.00 | 0.00 | 0.00 | 52 | 1010.1 |
| 20260507120016 | 75 | 336 | 1.0 | 2.0 | 0.00 | 0.00 | 0.00 | 53 | 1010.2 |
| 20260507115037 | 75 | 336 | 0.0 | 2.0 | 0.00 | 0.00 | 0.00 | 52 | 1010.1 |
| 20260507114017 | 75 | 336 | 0.0 | 2.0 | 0.00 | 0.00 | 0.00 | 51 | 1010.0 |
| 20260507113017 | 75 | 346 | 2.0 | 3.0 | 0.00 | 0.00 | 0.00 | 51 | 1009.8 |
| 20260507112036 | 76 | 292 | 0.0 | 2.0 | 0.00 | 0.00 | 0.00 | 51 | 1009.9 |
| 20260507111016 | 76 | 294 | 1.0 | 2.0 | 0.00 | 0.00 | 0.00 | 51 | 1010.2 |
| 20260507110036 | 76 | 297 | 1.0 | 2.0 | 0.00 | 0.00 | 0.00 | 51 | 1010.1 |
| 20260507105016 | 76 | 14 | 1.0 | 2.0 | 0.00 | 0.00 | 0.00 | 52 | 1010.0 |
| 20260507104017 | 76 | 72 | 1.0 | 2.0 | 0.00 | 0.00 | 0.00 | 51 | 1009.8 |
| 20260507103016 | 76 | 54 | 1.0 | 2.0 | 0.00 | 0.00 | 0.00 | 52 | 1009.7 |
| 20260507102017 | 76 | 34 | 0.0 | 2.0 | 0.00 | 0.00 | 0.00 | 52 | 1009.5 |
| 20260507101016 | 76 | 34 | 0.0 | 2.0 | 0.00 | 0.00 | 0.00 | 52 | 1009.5 |
| 20260507100037 | 76 | 29 | 1.0 | 2.0 | 0.00 | 0.00 | 0.00 | 51 | 1009.5 |
| 20260507095016 | 76 | 26 | 1.0 | 3.0 | 0.00 | 0.00 | 0.00 | 51 | 1009.5 |
| 20260507094016 | 76 | 2 | 1.0 | 3.0 | 0.00 | 0.00 | 0.00 | 50 | 1009.5 |
| 20260507093016 | 76 | 318 | 3.0 | 5.0 | 0.00 | 0.00 | 0.00 | 50 | 1009.7 |
| 20260507092037 | 77 | 321 | 2.0 | 4.0 | 0.00 | 0.00 | 0.00 | 49 | 1009.9 |
| 20260507091017 | 77 | 323 | 3.0 | 5.0 | 0.00 | 0.00 | 0.00 | 49 | 1009.9 |
| 20260507090036 | 77 | 320 | 2.0 | 4.0 | 0.00 | 0.00 | 0.00 | 48 | 1009.9 |
| 20260507085016 | 77 | 348 | 1.0 | 2.0 | 0.00 | 0.00 | 0.00 | 48 | 1010.0 |
| 20260507084016 | 78 | 55 | 0.0 | 2.0 | 0.00 | 0.00 | 0.00 | 48 | 1010.1 |
| 20260507083016 | 78 | 55 | 0.0 | 2.0 | 0.00 | 0.00 | 0.00 | 48 | 1010.1 |
| 20260507082016 | 79 | 12 | 0.0 | 2.0 | 0.00 | 0.00 | 0.00 | 46 | 1010.2 |
| 20260507081016 | 79 | 0.0 | 2.0 | 0.00 | 0.00 | 0.00 | 46 | 1010.2 | |
| 20260507080016 | 79 | 12 | 1.0 | 2.0 | 0.00 | 0.00 | 0.00 | 46 | 1010.3 |
| 20260507075017 | 78 | 5 | 0.0 | 3.0 | 0.00 | 0.00 | 0.00 | 46 | 1010.4 |
| 20260507074016 | 79 | 347 | 1.0 | 2.0 | 0.00 | 0.00 | 0.00 | 46 | 1010.9 |
| 20260507073016 | 79 | 347 | 1.0 | 2.0 | 0.00 | 0.00 | 0.00 | 46 | 1011.2 |
| 20260507072016 | 79 | 348 | 0.0 | 2.0 | 0.00 | 0.00 | 0.00 | 45 | 1011.2 |
| 20260507071037 | 79 | 338 | 2.0 | 3.0 | 0.00 | 0.00 | 0.00 | 45 | 1011.3 |
| 20260507070016 | 80 | 12 | 0.0 | 2.0 | 0.00 | 0.00 | 0.00 | 44 | 1011.5 |
| 20260507065016 | 80 | 349 | 1.0 | 3.0 | 0.00 | 0.00 | 0.00 | 44 | 1011.3 |
| 20260507064016 | 80 | 342 | 2.0 | 5.0 | 0.00 | 0.00 | 0.00 | 44 | 1011.5 |
| 20260507063016 | 80 | 8 | 2.0 | 5.0 | 0.00 | 0.00 | 0.00 | 45 | 1011.4 |
| 20260507062017 | 80 | 12 | 1.0 | 5.0 | 0.00 | 0.00 | 0.00 | 45 | 1011.7 |
| 20260507061017 | 79 | 22 | 1.0 | 4.0 | 0.00 | 0.00 | 0.00 | 47 | 1011.8 |
| 20260507060057 | 80 | 21 | 3.0 | 5.0 | 0.00 | 0.00 | 0.00 | 47 | 1011.6 |
| 20260507055016 | 80 | 329 | 2.0 | 4.0 | 0.00 | 0.00 | 0.00 | 47 | 1011.9 |
| 20260507054016 | 79 | 318 | 1.0 | 4.0 | 0.00 | 0.00 | 0.00 | 46 | 1011.9 |
| 20260507053016 | 79 | 352 | 0.0 | 2.0 | 0.00 | 0.00 | 0.00 | 45 | 1011.9 |
| 20260507052017 | 79 | 5 | 1.0 | 2.0 | 0.00 | 0.00 | 0.00 | 45 | 1012.0 |
| 20260507051016 | 79 | 325 | 1.0 | 3.0 | 0.00 | 0.00 | 0.00 | 44 | 1011.8 |
| 20260507050016 | 80 | 301 | 1.0 | 2.0 | 0.00 | 0.00 | 0.00 | 43 | 1011.5 |
| 20260507045016 | 80 | 296 | 1.0 | 3.0 | 0.00 | 0.00 | 0.00 | 43 | 1011.9 |
| 20260507044016 | 80 | 309 | 1.0 | 2.0 | 0.00 | 0.00 | 0.00 | 42 | 1011.7 |
| 20260507043036 | 80 | 315 | 1.0 | 2.0 | 0.00 | 0.00 | 0.00 | 42 | 1011.6 |
| 20260507042016 | 80 | 332 | 0.0 | 2.0 | 0.00 | 0.00 | 0.00 | 42 | 1011.6 |
| 20260507041016 | 81 | 329 | 1.0 | 2.0 | 0.00 | 0.00 | 0.00 | 41 | 1011.5 |
| 20260507040016 | 81 | 297 | 2.0 | 3.0 | 0.00 | 0.00 | 0.00 | 41 | 1011.6 |
| 20260507035036 | 81 | 250 | 1.0 | 2.0 | 0.00 | 0.00 | 0.00 | 42 | 1011.5 |
| 20260507034036 | 81 | 211 | 1.0 | 3.0 | 0.00 | 0.00 | 0.00 | 43 | 1011.6 |
| 20260507033017 | 81 | 318 | 2.0 | 3.0 | 0.00 | 0.00 | 0.00 | 44 | 1011.3 |
| 20260507032017 | 81 | 315 | 2.0 | 3.0 | 0.00 | 0.00 | 0.00 | 45 | 1011.3 |
| 20260507031016 | 81 | 301 | 2.0 | 4.0 | 0.00 | 0.00 | 0.00 | 45 | 1011.3 |
| 20260507030016 | 81 | 309 | 2.0 | 5.0 | 0.00 | 0.00 | 0.00 | 47 | 1011.2 |
| 20260507025016 | 81 | 296 | 1.0 | 4.0 | 0.00 | 0.00 | 0.00 | 49 | 1011.1 |
| 20260507024016 | 81 | 311 | 3.0 | 10.0 | 0.00 | 0.00 | 0.00 | 48 | 1011.1 |
| 20260507023016 | 82 | 291 | 3.0 | 6.0 | 0.00 | 0.00 | 0.00 | 49 | 1011.0 |
| 20260507022057 | 82 | 305 | 3.0 | 6.0 | 0.00 | 0.00 | 0.00 | 49 | 1010.9 |
| 20260507021016 | 82 | 285 | 2.0 | 10.0 | 0.00 | 0.00 | 0.00 | 49 | 1010.9 |
| 20260507020016 | 83 | 309 | 4.0 | 12.0 | 0.00 | 0.00 | 0.00 | 48 | 1010.8 |
| 20260507015016 | 83 | 279 | 2.0 | 5.0 | 0.00 | 0.00 | 0.00 | 48 | 1010.6 |
| 20260507014036 | 84 | 303 | 3.0 | 8.0 | 0.00 | 0.00 | 0.00 | 47 | 1010.6 |
| 20260507013016 | 84 | 302 | 2.0 | 6.0 | 0.00 | 0.00 | 0.00 | 47 | 1010.5 |
| 20260507012017 | 84 | 292 | 3.0 | 8.0 | 0.00 | 0.00 | 0.00 | 47 | 1010.6 |
| 20260507011016 | 85 | 305 | 3.0 | 8.0 | 0.00 | 0.00 | 0.00 | 46 | 1010.3 |
| 20260507010016 | 86 | 290 | 2.0 | 8.0 | 0.00 | 0.00 | 0.00 | 45 | 1010.2 |
| 20260507005016 | 86 | 301 | 4.0 | 12.0 | 0.00 | 0.00 | 0.00 | 43 | 1010.0 |
| 20260507004016 | 87 | 289 | 3.0 | 12.0 | 0.00 | 0.00 | 0.00 | 44 | 1010.0 |
| 20260507003016 | 87 | 290 | 4.0 | 9.0 | 0.00 | 0.00 | 0.00 | 44 | 1009.8 |
| 20260507002016 | 87 | 270 | 5.0 | 12.0 | 0.00 | 0.00 | 0.00 | 44 | 1009.7 |
| 20260507001017 | 88 | 286 | 5.0 | 11.0 | 0.00 | 0.00 | 0.00 | 43 | 1009.6 |
| 20260507000016 | 88 | 284 | 5.0 | 13.0 | 0.00 | 0.00 | 0.00 | 42 | 1009.6 |
| 20260506235016 | 88 | 301 | 4.0 | 12.0 | 0.00 | 0.00 | 0.00 | 43 | 1009.6 |
| 20260506234016 | 89 | 284 | 4.0 | 14.0 | 0.00 | 0.00 | 0.00 | 42 | 1009.6 |
| 20260506233016 | 89 | 303 | 4.0 | 13.0 | 0.00 | 0.00 | 0.00 | 41 | 1009.6 |
| 20260506232016 | 90 | 292 | 5.0 | 12.0 | 0.00 | 0.00 | 0.00 | 41 | 1009.6 |
| 20260506231036 | 90 | 297 | 6.0 | 13.0 | 0.00 | 0.00 | 0.00 | 39 | 1009.6 |
| 20260506230036 | 91 | 319 | 6.0 | 15.0 | 0.00 | 0.00 | 0.00 | 37 | 1009.5 |
| 20260506225016 | 91 | 299 | 4.0 | 10.0 | 0.00 | 0.00 | 0.00 | 38 | 1009.5 |
| 20260506224016 | 91 | 285 | 5.0 | 13.0 | 0.00 | 0.00 | 0.00 | 37 | 1009.6 |
| 20260506223016 | 91 | 300 | 5.0 | 13.0 | 0.00 | 0.00 | 0.00 | 36 | 1009.6 |
| 20260506222016 | 92 | 309 | 7.0 | 15.0 | 0.00 | 0.00 | 0.00 | 35 | 1009.7 |
| 20260506221016 | 93 | 303 | 6.0 | 15.0 | 0.00 | 0.00 | 0.00 | 34 | 1009.7 |
| 20260506220016 | 94 | 293 | 6.0 | 14.0 | 0.00 | 0.00 | 0.00 | 32 | 1009.6 |
| 20260506215016 | 97 | 266 | 6.0 | 14.0 | 0.00 | 0.00 | 0.00 | 29 | 1009.5 |
| 20260506214016 | 97 | 281 | 2.0 | 9.0 | 0.00 | 0.00 | 0.00 | 27 | 1009.5 |
| 20260506213016 | 97 | 310 | 4.0 | 12.0 | 0.00 | 0.00 | 0.00 | 28 | 1009.5 |
| 20260506212016 | 97 | 307 | 5.0 | 17.0 | 0.00 | 0.00 | 0.00 | 27 | 1009.7 |
| 20260506211016 | 98 | 327 | 5.0 | 14.0 | 0.00 | 0.00 | 0.00 | 26 | 1009.7 |
| 20260506210016 | 98 | 343 | 4.0 | 9.0 | 0.00 | 0.00 | 0.00 | 26 | 1009.8 |
| 20260506205016 | 99 | 303 | 4.0 | 9.0 | 0.00 | 0.00 | 0.00 | 25 | 1010.0 |
| 20260506204016 | 99 | 289 | 4.0 | 10.0 | 0.00 | 0.00 | 0.00 | 25 | 1010.1 |
| 20260506203016 | 99 | 239 | 2.0 | 6.0 | 0.00 | 0.00 | 0.00 | 24 | 1010.2 |
| 20260506202036 | 99 | 303 | 4.0 | 10.0 | 0.00 | 0.00 | 0.00 | 23 | 1010.3 |
| 20260506201016 | 99 | 282 | 4.0 | 9.0 | 0.00 | 0.00 | 0.00 | 24 | 1010.4 |
| 20260506200016 | 99 | 288 | 2.0 | 8.0 | 0.00 | 0.00 | 0.00 | 24 | 1010.5 |
| 20260506195016 | 98 | 307 | 2.0 | 5.0 | 0.00 | 0.00 | 0.00 | 27 | 1010.7 |
| 20260506194016 | 97 | 181 | 3.0 | 10.0 | 0.00 | 0.00 | 0.00 | 27 | 1010.8 |
| 20260506193036 | 97 | 300 | 3.0 | 10.0 | 0.00 | 0.00 | 0.00 | 28 | 1011.1 |
| 20260506192016 | 96 | 323 | 2.0 | 7.0 | 0.00 | 0.00 | 0.00 | 30 | 1011.3 |
| 20260506191016 | 96 | 260 | 3.0 | 10.0 | 0.00 | 0.00 | 0.00 | 30 | 1011.4 |
| 20260506190018 | 95 | 285 | 4.0 | 10.0 | 0.00 | 0.00 | 0.00 | 31 | 1011.5 |
| 20260506185016 | 96 | 236 | 3.0 | 6.0 | 0.00 | 0.00 | 0.00 | 32 | 1011.7 |
| 20260506184016 | 94 | 176 | 1.0 | 7.0 | 0.00 | 0.00 | 0.00 | 34 | 1011.8 |
| 20260506183057 | 93 | 355 | 4.0 | 11.0 | 0.00 | 0.00 | 0.00 | 36 | 1011.9 |
| 20260506182016 | 93 | 321 | 3.0 | 8.0 | 0.00 | 0.00 | 0.00 | 36 | 1011.9 |
| 20260506181036 | 92 | 303 | 3.0 | 10.0 | 0.00 | 0.00 | 0.00 | 38 | 1012.0 |
| 20260506180016 | 91 | 335 | 6.0 | 10.0 | 0.00 | 0.00 | 0.00 | 38 | 1012.1 |
| 20260506175016 | 91 | 293 | 3.0 | 10.0 | 0.00 | 0.00 | 0.00 | 39 | 1012.1 |
| 20260506174016 | 90 | 336 | 4.0 | 10.0 | 0.00 | 0.00 | 0.00 | 39 | 1012.3 |
| 20260506173016 | 91 | 330 | 4.0 | 9.0 | 0.00 | 0.00 | 0.00 | 37 | 1012.3 |
| 20260506172016 | 91 | 325 | 2.0 | 5.0 | 0.00 | 0.00 | 0.00 | 40 | 1012.3 |
| 20260506171017 | 91 | 310 | 2.0 | 7.0 | 0.00 | 0.00 | 0.00 | 39 | 1012.3 |
| 20260506170016 | 91 | 70 | 2.0 | 3.0 | 0.00 | 0.00 | 0.00 | 40 | 1012.2 |
| 20260506165016 | 89 | 15 | 2.0 | 4.0 | 0.00 | 0.00 | 0.00 | 42 | 1012.2 |
| 20260506164018 | 89 | 284 | 2.0 | 4.0 | 0.00 | 0.00 | 0.00 | 45 | 1012.2 |
| 20260506163057 | 88 | 143 | 1.0 | 2.0 | 0.00 | 0.00 | 0.00 | 46 | 1012.1 |
| 20260506162016 | 88 | 129 | 1.0 | 3.0 | 0.00 | 0.00 | 0.00 | 47 | 1012.1 |
| 20260506161036 | 86 | 166 | 2.0 | 5.0 | 0.00 | 0.00 | 0.00 | 50 | 1012.1 |
| 20260506160056 | 86 | 103 | 2.0 | 4.0 | 0.00 | 0.00 | 0.00 | 51 | 1012.0 |
| 20260506155036 | 85 | 167 | 1.0 | 3.0 | 0.00 | 0.00 | 0.00 | 52 | 1012.1 |
| 20260506154016 | 84 | 204 | 1.0 | 3.0 | 0.00 | 0.00 | 0.00 | 55 | 1012.1 |
| 20260506153016 | 83 | 191 | 2.0 | 3.0 | 0.00 | 0.00 | 0.00 | 56 | 1012.2 |
| 20260506152016 | 82 | 211 | 1.0 | 3.0 | 0.00 | 0.00 | 0.00 | 59 | 1012.1 |
| 20260506151016 | 81 | 181 | 1.0 | 3.0 | 0.00 | 0.00 | 0.00 | 60 | 1012.1 |
| 20260506150016 | 80 | 147 | 2.0 | 3.0 | 0.00 | 0.00 | 0.00 | 61 | 1012.1 |
| 20260506145016 | 79 | 214 | 1.0 | 3.0 | 0.00 | 0.00 | 0.00 | 64 | 1012.1 |
| 20260506144016 | 77 | 147 | 1.0 | 2.0 | 0.00 | 0.00 | 0.00 | 66 | 1012.0 |
| 20260506143016 | 76 | 185 | 1.0 | 2.0 | 0.00 | 0.00 | 0.00 | 68 | 1012.0 |
| 20260506142016 | 75 | 175 | 2.0 | 4.0 | 0.00 | 0.00 | 0.00 | 69 | 1012.0 |
| 20260506141016 | 76 | 178 | 1.0 | 2.0 | 0.00 | 0.00 | 0.00 | 68 | 1012.1 |